Time,TemperatureF,DewpointF,PressureIn,WindDirection,WindDirectionDegrees,WindSpeedMPH,WindSpeedGustMPH,Humidity,HourlyPrecipIn,Conditions,Clouds,dailyrainin,SoftwareType,DateUTC
2013-06-13 00:00:00,80.1,75.5,30.02,SW,216,0.0,1.0,86,0.00,,,0.00,Weather View 32 v70,2013-06-13 04:00:00,
2013-06-13 00:01:00,80.1,75.5,30.02,SW,216,0.0,1.0,86,0.00,,,0.00,Weather View 32 v70,2013-06-13 04:01:00,
2013-06-13 00:02:00,80.0,75.4,30.02,SW,215,0.0,1.0,86,0.00,,,0.00,Weather View 32 v70,2013-06-13 04:02:00,
2013-06-13 00:07:00,79.9,75.3,30.02,SW,216,0.0,1.0,86,0.00,,,0.00,Weather View 32 v70,2013-06-13 04:07:00,
2013-06-13 00:12:00,79.9,75.7,30.02,SW,216,0.0,0.0,87,0.00,,,0.00,Weather View 32 v70,2013-06-13 04:12:00,
2013-06-13 00:17:00,79.8,75.6,30.02,SW,215,0.0,0.0,87,0.00,,,0.00,Weather View 32 v70,2013-06-13 04:17:00,
2013-06-13 00:22:00,79.7,75.5,30.02,SW,216,0.0,0.0,87,0.00,,,0.00,Weather View 32 v70,2013-06-13 04:22:00,
2013-06-13 00:28:00,79.6,75.4,30.02,SW,215,0.0,0.0,87,0.00,,,0.00,Weather View 32 v70,2013-06-13 04:28:00,
2013-06-13 00:33:00,79.4,75.2,30.02,SW,216,0.0,0.0,87,0.00,,,0.00,Weather View 32 v70,2013-06-13 04:33:00,
2013-06-13 00:38:00,79.3,75.1,30.02,SW,216,0.0,0.0,87,0.00,,,0.00,Weather View 32 v70,2013-06-13 04:38:00,
2013-06-13 00:43:00,79.1,74.9,30.02,SW,215,0.0,0.0,87,0.00,,,0.00,Weather View 32 v70,2013-06-13 04:43:00,
2013-06-13 00:48:00,79.0,75.1,30.02,SW,216,0.0,0.0,88,0.00,,,0.00,Weather View 32 v70,2013-06-13 04:48:00,
2013-06-13 00:53:00,78.8,74.9,30.02,SW,216,0.0,0.0,88,0.00,,,0.00,Weather View 32 v70,2013-06-13 04:53:00,
2013-06-13 00:58:00,78.6,74.7,30.02,SW,215,0.0,0.0,88,0.00,,,0.00,Weather View 32 v70,2013-06-13 04:58:00,
2013-06-13 01:00:00,78.5,74.6,30.02,SW,215,0.0,0.0,88,0.00,,,0.00,Weather View 32 v70,2013-06-13 05:00:00,
2013-06-13 01:03:00,78.4,74.5,30.02,SW,215,0.0,0.0,88,0.00,,,0.00,Weather View 32 v70,2013-06-13 05:03:00,
2013-06-13 01:08:00,78.3,74.8,30.02,SW,216,0.0,0.0,89,0.00,,,0.00,Weather View 32 v70,2013-06-13 05:08:00,
2013-06-13 01:13:00,78.2,74.7,30.02,SW,216,0.0,0.0,89,0.00,,,0.00,Weather View 32 v70,2013-06-13 05:13:00,
2013-06-13 01:18:00,78.2,75.0,30.02,SW,216,0.0,0.0,90,0.00,,,0.00,Weather View 32 v70,2013-06-13 05:18:00,
2013-06-13 01:23:00,78.2,75.0,30.02,SW,215,0.0,0.0,90,0.00,,,0.00,Weather View 32 v70,2013-06-13 05:23:00,
2013-06-13 01:28:00,78.2,75.0,30.02,SW,216,0.0,0.0,90,0.00,,,0.00,Weather View 32 v70,2013-06-13 05:28:00,
2013-06-13 01:33:00,78.2,75.3,30.01,SW,215,0.0,0.0,91,0.00,,,0.00,Weather View 32 v70,2013-06-13 05:33:00,
2013-06-13 01:38:00,78.3,75.4,30.01,SW,216,0.0,0.0,91,0.00,,,0.00,Weather View 32 v70,2013-06-13 05:38:00,
2013-06-13 01:43:00,78.4,75.5,30.01,SW,216,0.0,2.0,91,0.00,,,0.00,Weather View 32 v70,2013-06-13 05:43:00,
2013-06-13 01:48:00,78.5,76.0,30.01,SW,216,0.0,2.0,92,0.00,,,0.00,Weather View 32 v70,2013-06-13 05:48:00,
2013-06-13 01:53:00,78.6,76.1,30.01,SW,215,0.0,3.0,92,0.00,,,0.00,Weather View 32 v70,2013-06-13 05:53:00,
2013-06-13 01:58:00,78.6,76.1,30.01,SW,216,0.0,3.0,92,0.00,,,0.00,Weather View 32 v70,2013-06-13 05:58:00,
2013-06-13 02:00:00,78.7,76.2,30.01,SW,216,0.0,3.0,92,0.00,,,0.00,Weather View 32 v70,2013-06-13 06:00:00,
2013-06-13 02:03:00,78.8,76.3,30.01,SW,216,0.0,5.0,92,0.00,,,0.00,Weather View 32 v70,2013-06-13 06:03:00,
2013-06-13 02:08:00,78.9,76.4,30.01,SW,215,0.0,5.0,92,0.00,,,0.00,Weather View 32 v70,2013-06-13 06:08:00,
2013-06-13 02:13:00,79.0,76.5,30.01,SW,216,0.0,5.0,92,0.00,,,0.00,Weather View 32 v70,2013-06-13 06:13:00,
2013-06-13 02:18:00,79.0,76.5,30.00,SW,215,0.0,5.0,92,0.00,,,0.00,Weather View 32 v70,2013-06-13 06:18:00,
2013-06-13 02:23:00,79.0,76.5,30.01,SSW,211,0.0,5.0,92,0.00,,,0.00,Weather View 32 v70,2013-06-13 06:23:00,
2013-06-13 02:28:00,79.0,76.5,30.00,SSW,211,0.0,5.0,92,0.00,,,0.00,Weather View 32 v70,2013-06-13 06:28:00,
2013-06-13 02:33:00,79.1,76.6,30.00,SSW,211,0.0,5.0,92,0.00,,,0.00,Weather View 32 v70,2013-06-13 06:33:00,
2013-06-13 02:38:00,79.0,76.5,30.00,SSW,211,0.0,5.0,92,0.00,,,0.00,Weather View 32 v70,2013-06-13 06:38:00,
2013-06-13 02:43:00,79.0,76.5,30.00,SSW,212,0.0,5.0,92,0.00,,,0.00,Weather View 32 v70,2013-06-13 06:43:00,
2013-06-13 02:48:00,79.0,76.5,30.00,SSW,211,1.0,5.0,92,0.00,,,0.00,Weather View 32 v70,2013-06-13 06:48:00,
2013-06-13 02:53:00,78.9,76.4,29.99,SSW,211,0.0,5.0,92,0.00,,,0.00,Weather View 32 v70,2013-06-13 06:53:00,
2013-06-13 02:58:00,78.9,76.4,29.99,SSW,211,0.0,5.0,92,0.00,,,0.00,Weather View 32 v70,2013-06-13 06:58:00,
2013-06-13 03:00:00,78.9,76.4,29.99,SSW,210,0.0,5.0,92,0.00,,,0.00,Weather View 32 v70,2013-06-13 07:00:00,
2013-06-13 03:03:00,78.9,76.4,29.99,SSW,211,3.0,5.0,92,0.00,,,0.00,Weather View 32 v70,2013-06-13 07:03:00,
2013-06-13 03:08:00,78.9,76.4,29.99,SSW,210,0.0,5.0,92,0.00,,,0.00,Weather View 32 v70,2013-06-13 07:08:00,
2013-06-13 03:13:00,78.9,76.4,29.99,SSW,210,0.0,5.0,92,0.00,,,0.00,Weather View 32 v70,2013-06-13 07:13:00,
2013-06-13 03:18:00,78.8,76.3,29.99,SSW,210,0.0,5.0,92,0.00,,,0.00,Weather View 32 v70,2013-06-13 07:18:00,
2013-06-13 03:23:00,78.9,76.4,29.99,SSW,209,0.0,4.0,92,0.00,,,0.00,Weather View 32 v70,2013-06-13 07:23:00,
2013-06-13 03:28:00,78.9,76.4,29.99,SSW,209,0.0,4.0,92,0.00,,,0.00,Weather View 32 v70,2013-06-13 07:28:00,
2013-06-13 03:33:00,79.0,76.5,29.99,SSW,209,0.0,4.0,92,0.00,,,0.00,Weather View 32 v70,2013-06-13 07:33:00,
2013-06-13 03:38:00,79.0,76.5,29.99,SSW,209,0.0,4.0,92,0.00,,,0.00,Weather View 32 v70,2013-06-13 07:38:00,
2013-06-13 03:43:00,79.0,76.1,29.99,SSW,209,0.0,4.0,91,0.00,,,0.00,Weather View 32 v70,2013-06-13 07:43:00,
2013-06-13 03:48:00,79.1,76.2,29.99,SSW,209,0.0,4.0,91,0.00,,,0.00,Weather View 32 v70,2013-06-13 07:48:00,
2013-06-13 03:53:00,79.0,76.1,29.99,SSW,209,0.0,4.0,91,0.00,,,0.00,Weather View 32 v70,2013-06-13 07:53:00,
2013-06-13 03:58:00,79.1,76.2,29.99,SSW,209,0.0,4.0,91,0.00,,,0.00,Weather View 32 v70,2013-06-13 07:58:00,
2013-06-13 04:00:00,79.1,76.2,29.99,SSW,209,0.0,4.0,91,0.00,,,0.00,Weather View 32 v70,2013-06-13 08:00:00,
2013-06-13 04:03:00,79.0,76.1,29.99,SSW,209,0.0,4.0,91,0.00,,,0.00,Weather View 32 v70,2013-06-13 08:03:00,
2013-06-13 04:08:00,79.0,76.1,29.99,SSW,209,0.0,3.0,91,0.00,,,0.00,Weather View 32 v70,2013-06-13 08:08:00,
2013-06-13 04:13:00,78.9,76.0,29.98,SSW,209,0.0,3.0,91,0.00,,,0.00,Weather View 32 v70,2013-06-13 08:13:00,
2013-06-13 04:18:00,78.9,76.0,29.98,SSW,209,0.0,3.0,91,0.00,,,0.00,Weather View 32 v70,2013-06-13 08:18:00,
2013-06-13 04:24:00,78.9,76.0,29.98,SSW,209,0.0,2.0,91,0.00,,,0.00,Weather View 32 v70,2013-06-13 08:24:00,
2013-06-13 04:29:00,78.8,75.9,29.98,SSW,209,0.0,2.0,91,0.00,,,0.00,Weather View 32 v70,2013-06-13 08:29:00,
2013-06-13 04:34:00,78.8,75.9,29.98,SSW,209,0.0,2.0,91,0.00,,,0.00,Weather View 32 v70,2013-06-13 08:34:00,
2013-06-13 04:39:00,78.7,75.8,29.97,SSW,209,0.0,2.0,91,0.00,,,0.00,Weather View 32 v70,2013-06-13 08:39:00,
2013-06-13 04:44:00,78.6,75.7,29.97,SSW,209,0.0,2.0,91,0.00,,,0.00,Weather View 32 v70,2013-06-13 08:44:00,
2013-06-13 04:49:00,78.6,75.7,29.97,SSW,209,0.0,2.0,91,0.00,,,0.00,Weather View 32 v70,2013-06-13 08:49:00,
2013-06-13 04:54:00,78.6,75.7,29.97,SSW,209,0.0,2.0,91,0.00,,,0.00,Weather View 32 v70,2013-06-13 08:54:00,
2013-06-13 04:59:00,78.6,76.1,29.97,SSW,209,0.0,2.0,92,0.00,,,0.00,Weather View 32 v70,2013-06-13 08:59:00,
2013-06-13 05:00:00,78.6,76.1,29.97,SSW,209,0.0,2.0,92,0.00,,,0.00,Weather View 32 v70,2013-06-13 09:00:00,
2013-06-13 05:04:00,78.6,76.1,29.98,SSW,209,0.0,2.0,92,0.00,,,0.00,Weather View 32 v70,2013-06-13 09:04:00,
2013-06-13 05:09:00,78.7,76.2,29.97,SSW,209,0.0,2.0,92,0.00,,,0.00,Weather View 32 v70,2013-06-13 09:09:00,
2013-06-13 05:14:00,78.7,75.8,29.98,SSW,209,0.0,2.0,91,0.00,,,0.00,Weather View 32 v70,2013-06-13 09:14:00,
2013-06-13 05:19:00,78.8,75.9,29.97,SSW,209,0.0,2.0,91,0.00,,,0.00,Weather View 32 v70,2013-06-13 09:19:00,
2013-06-13 05:24:00,78.9,76.0,29.97,SSW,209,0.0,2.0,91,0.00,,,0.00,Weather View 32 v70,2013-06-13 09:24:00,
2013-06-13 05:29:00,78.9,76.0,29.98,SSW,209,0.0,2.0,91,0.00,,,0.00,Weather View 32 v70,2013-06-13 09:29:00,
2013-06-13 05:34:00,78.9,76.0,29.97,SSW,209,0.0,2.0,91,0.00,,,0.00,Weather View 32 v70,2013-06-13 09:34:00,
2013-06-13 05:39:00,78.9,76.0,29.97,SSW,209,0.0,2.0,91,0.00,,,0.00,Weather View 32 v70,2013-06-13 09:39:00,
2013-06-13 05:44:00,78.9,76.0,29.98,SSW,209,0.0,2.0,91,0.00,,,0.00,Weather View 32 v70,2013-06-13 09:44:00,
2013-06-13 05:49:00,78.9,76.0,29.98,SSW,209,0.0,2.0,91,0.00,,,0.00,Weather View 32 v70,2013-06-13 09:49:00,
2013-06-13 05:54:00,79.0,76.1,29.98,SSW,209,0.0,2.0,91,0.00,,,0.00,Weather View 32 v70,2013-06-13 09:54:00,
2013-06-13 05:59:00,79.0,76.1,29.98,SSW,209,0.0,2.0,91,0.00,,,0.00,Weather View 32 v70,2013-06-13 09:59:00,
2013-06-13 06:00:00,79.0,76.1,29.98,SSW,209,0.0,2.0,91,0.00,,,0.00,Weather View 32 v70,2013-06-13 10:00:00,
2013-06-13 06:04:00,79.0,76.1,29.98,SSW,209,0.0,3.0,91,0.00,,,0.00,Weather View 32 v70,2013-06-13 10:04:00,
2013-06-13 06:09:00,79.1,76.2,29.98,SSW,209,0.0,3.0,91,0.00,,,0.00,Weather View 32 v70,2013-06-13 10:09:00,
2013-06-13 06:14:00,79.1,76.2,29.98,SSW,209,0.0,3.0,91,0.00,,,0.00,Weather View 32 v70,2013-06-13 10:14:00,
2013-06-13 06:19:00,79.1,76.2,29.98,SSW,209,0.0,3.0,91,0.00,,,0.00,Weather View 32 v70,2013-06-13 10:19:00,
2013-06-13 06:24:00,79.2,76.3,29.98,SSW,209,0.0,3.0,91,0.00,,,0.00,Weather View 32 v70,2013-06-13 10:24:00,
2013-06-13 06:29:00,79.2,76.3,29.98,SSW,209,0.0,3.0,91,0.00,,,0.00,Weather View 32 v70,2013-06-13 10:29:00,
2013-06-13 06:34:00,79.2,76.3,29.98,SSW,209,0.0,3.0,91,0.00,,,0.00,Weather View 32 v70,2013-06-13 10:34:00,
2013-06-13 06:39:00,79.2,76.3,29.99,SSW,209,0.0,3.0,91,0.00,,,0.00,Weather View 32 v70,2013-06-13 10:39:00,
2013-06-13 06:44:00,79.3,76.4,29.99,SSW,209,0.0,3.0,91,0.00,,,0.00,Weather View 32 v70,2013-06-13 10:44:00,
2013-06-13 06:49:00,79.2,76.3,29.99,SSW,209,0.0,3.0,91,0.00,,,0.00,Weather View 32 v70,2013-06-13 10:49:00,
2013-06-13 06:54:00,79.3,76.1,29.99,SSW,209,0.0,3.0,90,0.00,,,0.00,Weather View 32 v70,2013-06-13 10:54:00,
2013-06-13 06:59:00,79.2,76.0,29.99,SSW,209,0.0,3.0,90,0.00,,,0.00,Weather View 32 v70,2013-06-13 10:59:00,
2013-06-13 07:00:00,79.3,76.1,29.99,SSW,209,0.0,3.0,90,0.00,,,0.00,Weather View 32 v70,2013-06-13 11:00:00,
2013-06-13 07:04:00,79.3,76.1,29.99,SSW,209,0.0,1.0,90,0.00,,,0.00,Weather View 32 v70,2013-06-13 11:04:00,
2013-06-13 07:09:00,79.3,76.1,29.99,SSW,209,0.0,1.0,90,0.00,,,0.00,Weather View 32 v70,2013-06-13 11:09:00,
2013-06-13 07:14:00,79.3,76.1,29.99,SSW,209,0.0,1.0,90,0.00,,,0.00,Weather View 32 v70,2013-06-13 11:14:00,
2013-06-13 07:19:00,79.3,76.1,29.99,SSW,209,0.0,1.0,90,0.00,,,0.00,Weather View 32 v70,2013-06-13 11:19:00,
2013-06-13 07:24:00,79.4,76.2,30.00,SSW,209,0.0,1.0,90,0.00,,,0.00,Weather View 32 v70,2013-06-13 11:24:00,
2013-06-13 07:29:00,79.6,76.1,30.00,SSW,209,0.0,1.0,89,0.00,,,0.00,Weather View 32 v70,2013-06-13 11:29:00,
2013-06-13 07:34:00,79.7,76.2,30.00,SSW,209,0.0,1.0,89,0.00,,,0.00,Weather View 32 v70,2013-06-13 11:34:00,
2013-06-13 07:39:00,80.0,76.4,30.00,SSW,209,0.0,1.0,89,0.00,,,0.00,Weather View 32 v70,2013-06-13 11:39:00,
2013-06-13 07:44:00,80.2,76.3,30.00,SSW,209,0.0,3.0,88,0.00,,,0.00,Weather View 32 v70,2013-06-13 11:44:00,
2013-06-13 07:49:00,80.4,76.5,30.00,SSW,209,0.0,3.0,88,0.00,,,0.00,Weather View 32 v70,2013-06-13 11:49:00,
2013-06-13 07:54:00,80.7,76.4,30.00,SSW,209,0.0,3.0,87,0.00,,,0.00,Weather View 32 v70,2013-06-13 11:54:00,
2013-06-13 07:59:00,81.0,76.7,30.00,SSW,209,0.0,3.0,87,0.00,,,0.00,Weather View 32 v70,2013-06-13 11:59:00,
2013-06-13 08:00:00,81.0,76.7,30.00,SSW,209,0.0,3.0,87,0.00,,,0.00,Weather View 32 v70,2013-06-13 12:00:00,
2013-06-13 08:04:00,81.4,76.8,30.00,SSW,209,0.0,3.0,86,0.00,,,0.00,Weather View 32 v70,2013-06-13 12:04:00,
2013-06-13 08:09:00,81.6,77.0,30.00,SSW,209,0.0,3.0,86,0.00,,,0.00,Weather View 32 v70,2013-06-13 12:09:00,
2013-06-13 08:14:00,81.9,76.9,30.00,SSW,209,0.0,3.0,85,0.00,,,0.00,Weather View 32 v70,2013-06-13 12:14:00,
2013-06-13 08:19:00,82.0,77.0,30.01,SW,215,0.0,6.0,85,0.00,,,0.00,Weather View 32 v70,2013-06-13 12:19:00,
2013-06-13 08:24:00,82.0,76.7,30.01,SW,216,0.0,6.0,84,0.00,,,0.00,Weather View 32 v70,2013-06-13 12:24:00,
2013-06-13 08:29:00,82.0,76.7,30.01,SW,215,0.0,6.0,84,0.00,,,0.00,Weather View 32 v70,2013-06-13 12:29:00,
2013-06-13 08:34:00,82.2,76.9,30.01,SW,220,0.0,6.0,84,0.00,,,0.00,Weather View 32 v70,2013-06-13 12:34:00,
2013-06-13 08:39:00,82.6,76.9,30.02,SW,227,3.0,6.0,83,0.00,,,0.00,Weather View 32 v70,2013-06-13 12:39:00,
2013-06-13 08:44:00,83.0,77.3,30.02,SW,226,0.0,6.0,83,0.00,,,0.00,Weather View 32 v70,2013-06-13 12:44:00,
2013-06-13 08:49:00,83.4,77.7,30.02,SW,229,2.0,6.0,83,0.00,,,0.00,Weather View 32 v70,2013-06-13 12:49:00,
2013-06-13 08:54:00,83.7,77.2,30.02,SW,229,2.0,6.0,81,0.00,,,0.00,Weather View 32 v70,2013-06-13 12:54:00,
2013-06-13 08:59:00,84.2,77.3,30.02,SW,232,1.0,6.0,80,0.00,,,0.00,Weather View 32 v70,2013-06-13 12:59:00,
2013-06-13 09:00:00,84.2,77.3,30.02,SW,232,0.0,6.0,80,0.00,,,0.00,Weather View 32 v70,2013-06-13 13:00:00,
2013-06-13 09:04:00,84.7,77.4,30.02,SW,232,2.0,6.0,79,0.00,,,0.00,Weather View 32 v70,2013-06-13 13:04:00,
2013-06-13 09:09:00,84.4,76.4,30.03,WSW,252,0.0,6.0,77,0.00,,,0.00,Weather View 32 v70,2013-06-13 13:09:00,
2013-06-13 09:14:00,83.7,76.5,30.03,WSW,252,2.0,6.0,79,0.00,,,0.00,Weather View 32 v70,2013-06-13 13:14:00,
2013-06-13 09:19:00,83.4,76.5,30.03,WSW,253,0.0,5.0,80,0.00,,,0.00,Weather View 32 v70,2013-06-13 13:19:00,
2013-06-13 09:24:00,83.3,76.5,30.03,WSW,253,0.0,5.0,80,0.00,,,0.00,Weather View 32 v70,2013-06-13 13:24:00,
2013-06-13 09:29:00,83.9,77.4,30.03,WSW,253,0.0,5.0,81,0.00,,,0.00,Weather View 32 v70,2013-06-13 13:29:00,
2013-06-13 09:34:00,85.4,77.7,30.03,West,261,0.0,5.0,78,0.00,,,0.00,Weather View 32 v70,2013-06-13 13:34:00,
2013-06-13 09:39:00,85.7,77.2,30.03,West,260,0.0,5.0,76,0.00,,,0.00,Weather View 32 v70,2013-06-13 13:39:00,
2013-06-13 09:44:00,85.1,77.0,30.03,West,261,0.0,5.0,77,0.00,,,0.00,Weather View 32 v70,2013-06-13 13:44:00,
2013-06-13 09:49:00,84.9,77.2,30.03,West,261,4.0,5.0,78,0.00,,,0.00,Weather View 32 v70,2013-06-13 13:49:00,
2013-06-13 09:55:00,85.0,76.5,30.03,West,262,4.0,5.0,76,0.00,,,0.00,Weather View 32 v70,2013-06-13 13:55:00,
2013-06-13 10:00:00,85.0,76.5,30.03,West,261,2.0,5.0,76,0.00,,,0.00,Weather View 32 v70,2013-06-13 14:00:00,
2013-06-13 10:05:00,85.1,76.6,30.03,West,261,1.0,5.0,76,0.00,,,0.00,Weather View 32 v70,2013-06-13 14:05:00,
2013-06-13 10:10:00,86.0,77.1,30.03,West,261,0.0,5.0,75,0.00,,,0.00,Weather View 32 v70,2013-06-13 14:10:00,
2013-06-13 10:15:00,87.0,77.3,30.03,West,263,3.0,5.0,73,0.00,,,0.00,Weather View 32 v70,2013-06-13 14:15:00,
2013-06-13 10:20:00,87.2,77.0,30.03,West,277,0.0,5.0,72,0.00,,,0.00,Weather View 32 v70,2013-06-13 14:20:00,
2013-06-13 10:25:00,87.4,77.2,30.03,West,276,0.0,5.0,72,0.00,,,0.00,Weather View 32 v70,2013-06-13 14:25:00,
2013-06-13 10:30:00,88.0,76.5,30.03,West,276,3.0,5.0,69,0.00,,,0.00,Weather View 32 v70,2013-06-13 14:30:00,
2013-06-13 10:35:00,87.4,76.8,30.03,North,0,0.0,5.0,71,0.00,,,0.00,Weather View 32 v70,2013-06-13 14:35:00,
2013-06-13 10:40:00,87.7,76.2,30.03,North,0,4.0,5.0,69,0.00,,,0.00,Weather View 32 v70,2013-06-13 14:40:00,
2013-06-13 10:45:00,88.0,76.9,30.03,SW,228,0.0,5.0,70,0.00,,,0.00,Weather View 32 v70,2013-06-13 14:45:00,
2013-06-13 10:50:00,87.8,76.3,30.03,WSW,239,2.0,5.0,69,0.00,,,0.00,Weather View 32 v70,2013-06-13 14:50:00,
2013-06-13 10:55:00,87.5,76.9,30.03,WSW,249,3.0,5.0,71,0.00,,,0.00,Weather View 32 v70,2013-06-13 14:55:00,
2013-06-13 11:00:00,87.1,76.5,30.03,West,265,0.0,5.0,71,0.00,,,0.00,Weather View 32 v70,2013-06-13 15:00:00,
2013-06-13 11:05:00,86.6,75.6,30.03,West,269,3.0,8.0,70,0.00,,,0.00,Weather View 32 v70,2013-06-13 15:05:00,
2013-06-13 11:10:00,86.4,76.3,30.03,WSW,254,3.0,8.0,72,0.00,,,0.00,Weather View 32 v70,2013-06-13 15:10:00,
2013-06-13 11:15:00,86.6,76.0,30.03,West,264,4.0,8.0,71,0.00,,,0.00,Weather View 32 v70,2013-06-13 15:15:00,
2013-06-13 11:20:00,86.4,75.8,30.03,West,273,3.0,8.0,71,0.00,,,0.00,Weather View 32 v70,2013-06-13 15:20:00,
2013-06-13 11:25:00,86.7,76.5,30.03,West,273,0.0,8.0,72,0.00,,,0.00,Weather View 32 v70,2013-06-13 15:25:00,
2013-06-13 11:30:00,87.6,77.0,30.03,West,280,4.0,8.0,71,0.00,,,0.00,Weather View 32 v70,2013-06-13 15:30:00,
2013-06-13 11:35:00,87.8,77.2,30.03,West,280,0.0,8.0,71,0.00,,,0.00,Weather View 32 v70,2013-06-13 15:35:00,
2013-06-13 11:40:00,88.2,76.2,30.03,West,259,4.0,8.0,68,0.00,,,0.00,Weather View 32 v70,2013-06-13 15:40:00,
2013-06-13 11:45:00,87.4,75.9,30.03,West,273,0.0,8.0,69,0.00,,,0.00,Weather View 32 v70,2013-06-13 15:45:00,
2013-06-13 11:50:00,88.0,76.9,30.03,West,276,3.0,8.0,70,0.00,,,0.00,Weather View 32 v70,2013-06-13 15:50:00,
2013-06-13 11:55:00,88.4,76.4,30.03,WNW,283,5.0,8.0,68,0.00,,,0.00,Weather View 32 v70,2013-06-13 15:55:00,
2013-06-13 12:00:00,87.9,76.4,30.03,West,276,3.0,8.0,69,0.00,,,0.00,Weather View 32 v70,2013-06-13 16:00:00,
2013-06-13 12:05:00,87.0,76.4,30.03,West,272,0.0,7.0,71,0.00,,,0.00,Weather View 32 v70,2013-06-13 16:05:00,
2013-06-13 12:10:00,87.6,76.6,30.03,West,276,0.0,7.0,70,0.00,,,0.00,Weather View 32 v70,2013-06-13 16:10:00,
2013-06-13 12:15:00,88.6,76.6,30.03,WNW,300,0.0,7.0,68,0.00,,,0.00,Weather View 32 v70,2013-06-13 16:15:00,
2013-06-13 12:20:00,88.5,76.1,30.03,West,261,3.0,7.0,67,0.00,,,0.00,Weather View 32 v70,2013-06-13 16:20:00,
2013-06-13 12:26:00,87.6,77.0,30.03,West,273,3.0,7.0,71,0.00,,,0.00,Weather View 32 v70,2013-06-13 16:26:00,
2013-06-13 12:31:00,88.2,77.1,30.03,West,275,0.0,7.0,70,0.00,,,0.00,Weather View 32 v70,2013-06-13 16:31:00,
2013-06-13 12:36:00,88.2,76.2,30.02,West,261,1.0,7.0,68,0.00,,,0.00,Weather View 32 v70,2013-06-13 16:36:00,
2013-06-13 12:41:00,87.6,76.1,30.02,WNW,290,0.0,7.0,69,0.00,,,0.00,Weather View 32 v70,2013-06-13 16:41:00,
2013-06-13 12:46:00,87.9,76.0,30.02,West,268,5.0,9.0,68,0.00,,,0.00,Weather View 32 v70,2013-06-13 16:46:00,
2013-06-13 12:51:00,88.0,76.1,30.02,WNW,294,1.0,9.0,68,0.00,,,0.00,Weather View 32 v70,2013-06-13 16:51:00,
2013-06-13 12:56:00,88.5,77.0,30.02,WNW,286,0.0,9.0,69,0.00,,,0.00,Weather View 32 v70,2013-06-13 16:56:00,
2013-06-13 13:00:00,88.6,77.1,30.02,WNW,288,0.0,9.0,69,0.00,,,0.00,Weather View 32 v70,2013-06-13 17:00:00,
2013-06-13 13:01:00,88.7,77.2,30.02,West,275,3.0,9.0,69,0.00,,,0.00,Weather View 32 v70,2013-06-13 17:01:00,
2013-06-13 13:06:00,88.8,76.4,30.01,West,267,4.0,9.0,67,0.00,,,0.00,Weather View 32 v70,2013-06-13 17:06:00,
2013-06-13 13:11:00,88.7,77.2,30.01,West,266,1.0,9.0,69,0.00,,,0.00,Weather View 32 v70,2013-06-13 17:11:00,
2013-06-13 13:16:00,89.4,77.4,30.01,WNW,297,1.0,9.0,68,0.00,,,0.00,Weather View 32 v70,2013-06-13 17:16:00,
2013-06-13 13:21:00,90.2,77.2,30.02,West,280,0.0,9.0,66,0.00,,,0.00,Weather View 32 v70,2013-06-13 17:21:00,
2013-06-13 13:26:00,91.2,76.8,30.01,West,264,0.0,9.0,63,0.00,,,0.00,Weather View 32 v70,2013-06-13 17:26:00,
2013-06-13 13:31:00,91.4,77.0,30.01,SW,229,5.0,9.0,63,0.00,,,0.00,Weather View 32 v70,2013-06-13 17:31:00,
2013-06-13 13:36:00,90.7,77.3,30.01,WSW,257,0.0,9.0,65,0.00,,,0.00,Weather View 32 v70,2013-06-13 17:36:00,
2013-06-13 13:41:00,90.2,76.8,30.01,West,273,6.0,9.0,65,0.00,,,0.00,Weather View 32 v70,2013-06-13 17:41:00,
2013-06-13 13:46:00,89.5,77.0,30.00,WNW,283,1.0,10.0,67,0.00,,,0.00,Weather View 32 v70,2013-06-13 17:46:00,
2013-06-13 13:51:00,89.4,76.0,30.00,WNW,286,1.0,10.0,65,0.00,,,0.00,Weather View 32 v70,2013-06-13 17:51:00,
2013-06-13 13:56:00,89.9,77.0,30.00,West,273,4.0,10.0,66,0.00,,,0.00,Weather View 32 v70,2013-06-13 17:56:00,
2013-06-13 14:00:00,89.5,75.2,30.00,West,265,4.0,10.0,63,0.00,,,0.00,Weather View 32 v70,2013-06-13 18:00:00,
2013-06-13 14:01:00,89.3,76.4,30.00,West,265,6.0,10.0,66,0.00,,,0.00,Weather View 32 v70,2013-06-13 18:01:00,
2013-06-13 14:06:00,88.3,75.9,30.00,WNW,283,5.0,11.0,67,0.00,,,0.00,Weather View 32 v70,2013-06-13 18:06:00,
2013-06-13 14:11:00,88.5,77.0,30.00,West,275,3.0,11.0,69,0.00,,,0.00,Weather View 32 v70,2013-06-13 18:11:00,
2013-06-13 14:16:00,89.4,76.9,29.99,West,275,0.0,11.0,67,0.00,,,0.00,Weather View 32 v70,2013-06-13 18:16:00,
2013-06-13 14:21:00,90.6,77.6,29.99,WNW,286,5.0,11.0,66,0.00,,,0.00,Weather View 32 v70,2013-06-13 18:21:00,
2013-06-13 14:26:00,90.8,75.9,29.99,West,272,0.0,11.0,62,0.00,,,0.00,Weather View 32 v70,2013-06-13 18:26:00,
2013-06-13 14:31:00,90.2,75.8,29.98,West,275,4.0,11.0,63,0.00,,,0.00,Weather View 32 v70,2013-06-13 18:31:00,
2013-06-13 14:36:00,89.5,75.7,29.98,West,279,4.0,11.0,64,0.00,,,0.00,Weather View 32 v70,2013-06-13 18:36:00,
2013-06-13 14:41:00,89.4,75.6,29.97,West,268,3.0,11.0,64,0.00,,,0.00,Weather View 32 v70,2013-06-13 18:41:00,
2013-06-13 14:46:00,89.9,76.0,29.97,West,275,1.0,11.0,64,0.00,,,0.00,Weather View 32 v70,2013-06-13 18:46:00,
2013-06-13 14:51:00,89.7,75.4,29.97,WSW,257,3.0,11.0,63,0.00,,,0.00,Weather View 32 v70,2013-06-13 18:51:00,
2013-06-13 14:56:00,90.0,76.1,29.96,WNW,294,0.0,11.0,64,0.00,,,0.00,Weather View 32 v70,2013-06-13 18:56:00,
2013-06-13 15:00:00,90.3,75.4,29.96,WSW,248,7.0,11.0,62,0.00,,,0.00,Weather View 32 v70,2013-06-13 19:00:00,
2013-06-13 15:02:00,90.3,75.4,29.96,West,261,3.0,11.0,62,0.00,,,0.00,Weather View 32 v70,2013-06-13 19:02:00,
2013-06-13 15:07:00,89.7,74.9,29.96,West,261,3.0,10.0,62,0.00,,,0.00,Weather View 32 v70,2013-06-13 19:07:00,
2013-06-13 15:12:00,89.2,73.9,29.96,West,273,3.0,10.0,61,0.00,,,0.00,Weather View 32 v70,2013-06-13 19:12:00,
2013-06-13 15:17:00,89.7,75.4,29.96,West,273,1.0,10.0,63,0.00,,,0.00,Weather View 32 v70,2013-06-13 19:17:00,
2013-06-13 15:22:00,90.2,75.8,29.96,WNW,292,0.0,10.0,63,0.00,,,0.00,Weather View 32 v70,2013-06-13 19:22:00,
2013-06-13 15:27:00,90.7,75.8,29.96,West,273,3.0,11.0,62,0.00,,,0.00,Weather View 32 v70,2013-06-13 19:27:00,
2013-06-13 15:32:00,90.0,76.1,29.96,SW,236,2.0,11.0,64,0.00,,,0.00,Weather View 32 v70,2013-06-13 19:32:00,
2013-06-13 15:37:00,89.3,76.4,29.96,West,259,4.0,11.0,66,0.00,,,0.00,Weather View 32 v70,2013-06-13 19:37:00,
2013-06-13 15:42:00,89.6,76.7,29.96,West,273,1.0,11.0,66,0.00,,,0.00,Weather View 32 v70,2013-06-13 19:42:00,
2013-06-13 15:47:00,90.3,76.9,29.96,NW,308,7.0,11.0,65,0.00,,,0.00,Weather View 32 v70,2013-06-13 19:47:00,
2013-06-13 15:52:00,90.3,76.4,29.96,WNW,292,4.0,11.0,64,0.00,,,0.00,Weather View 32 v70,2013-06-13 19:52:00,
2013-06-13 15:57:00,90.6,76.7,29.96,West,278,3.0,11.0,64,0.00,,,0.00,Weather View 32 v70,2013-06-13 19:57:00,
2013-06-13 16:02:00,90.6,76.7,29.96,West,265,3.0,11.0,64,0.00,,,0.00,Weather View 32 v70,2013-06-13 20:02:00,
2013-06-13 16:07:00,91.1,77.2,29.96,West,261,3.0,11.0,64,0.00,,,0.00,Weather View 32 v70,2013-06-13 20:07:00,
2013-06-13 16:12:00,90.9,77.0,29.96,WNW,287,3.0,11.0,64,0.00,,,0.00,Weather View 32 v70,2013-06-13 20:12:00,
2013-06-13 16:17:00,90.1,76.7,29.96,WSW,249,9.0,11.0,65,0.00,,,0.00,Weather View 32 v70,2013-06-13 20:17:00,
2013-06-13 16:22:00,89.4,77.4,29.96,WSW,248,5.0,11.0,68,0.00,,,0.00,Weather View 32 v70,2013-06-13 20:22:00,
2013-06-13 16:27:00,89.1,76.7,29.96,SW,229,5.0,11.0,67,0.00,,,0.00,Weather View 32 v70,2013-06-13 20:27:00,
2013-06-13 16:32:00,89.0,76.6,29.96,West,267,5.0,11.0,67,0.00,,,0.00,Weather View 32 v70,2013-06-13 20:32:00,
2013-06-13 16:37:00,88.8,76.3,29.96,WNW,284,4.0,11.0,67,0.00,,,0.00,Weather View 32 v70,2013-06-13 20:37:00,
2013-06-13 16:42:00,89.0,77.0,29.96,SW,236,5.0,11.0,68,0.00,,,0.00,Weather View 32 v70,2013-06-13 20:42:00,
2013-06-13 16:47:00,88.5,75.6,29.96,West,277,4.0,11.0,66,0.00,,,0.00,Weather View 32 v70,2013-06-13 20:47:00,
2013-06-13 16:52:00,88.8,76.4,29.96,WSW,244,4.0,11.0,67,0.00,,,0.00,Weather View 32 v70,2013-06-13 20:52:00,
2013-06-13 16:57:00,88.4,75.5,29.95,WNW,283,3.0,11.0,66,0.00,,,0.00,Weather View 32 v70,2013-06-13 20:57:00,
2013-06-13 17:02:00,88.2,75.3,29.95,West,260,2.0,11.0,66,0.00,,,0.00,Weather View 32 v70,2013-06-13 21:02:00,
2013-06-13 17:07:00,88.2,75.8,29.95,WSW,240,7.0,11.0,67,0.00,,,0.00,Weather View 32 v70,2013-06-13 21:07:00,
2013-06-13 17:12:00,88.1,75.3,29.94,West,264,5.0,11.0,66,0.00,,,0.00,Weather View 32 v70,2013-06-13 21:12:00,
2013-06-13 17:17:00,87.9,74.1,29.94,WNW,283,6.0,11.0,64,0.00,,,0.00,Weather View 32 v70,2013-06-13 21:17:00,
2013-06-13 17:22:00,88.3,74.5,29.94,WNW,286,4.0,11.0,64,0.00,,,0.00,Weather View 32 v70,2013-06-13 21:22:00,
2013-06-13 17:27:00,88.2,75.3,29.94,West,280,3.0,11.0,66,0.00,,,0.00,Weather View 32 v70,2013-06-13 21:27:00,
2013-06-13 17:32:00,88.0,76.5,29.94,WNW,288,4.0,11.0,69,0.00,,,0.00,Weather View 32 v70,2013-06-13 21:32:00,
2013-06-13 17:37:00,88.0,76.1,29.94,WSW,245,6.0,11.0,68,0.00,,,0.00,Weather View 32 v70,2013-06-13 21:37:00,
2013-06-13 17:42:00,87.5,76.5,29.94,West,280,1.0,11.0,70,0.00,,,0.00,Weather View 32 v70,2013-06-13 21:42:00,
2013-06-13 17:47:00,87.6,76.1,29.94,West,271,0.0,11.0,69,0.00,,,0.00,Weather View 32 v70,2013-06-13 21:47:00,
2013-06-13 17:52:00,87.7,76.2,29.95,SSW,200,4.0,11.0,69,0.00,,,0.00,Weather View 32 v70,2013-06-13 21:52:00,
2013-06-13 17:58:00,87.5,75.6,29.94,South,188,4.0,9.0,68,0.00,,,0.00,Weather View 32 v70,2013-06-13 21:58:00,
2013-06-13 18:03:00,87.4,75.9,29.94,West,268,5.0,9.0,69,0.00,,,0.00,Weather View 32 v70,2013-06-13 22:03:00,
2013-06-13 18:08:00,87.1,75.6,29.94,SSW,203,5.0,9.0,69,0.00,,,0.00,Weather View 32 v70,2013-06-13 22:08:00,
2013-06-13 18:13:00,86.9,75.5,29.94,WSW,256,5.0,9.0,69,0.00,,,0.00,Weather View 32 v70,2013-06-13 22:13:00,
2013-06-13 18:18:00,86.5,75.5,29.93,WNW,295,6.0,9.0,70,0.00,,,0.00,Weather View 32 v70,2013-06-13 22:18:00,
2013-06-13 18:23:00,85.9,75.4,29.93,WSW,246,4.0,9.0,71,0.00,,,0.00,Weather View 32 v70,2013-06-13 22:23:00,
2013-06-13 18:28:00,86.1,76.4,29.93,SW,229,2.0,9.0,73,0.00,,,0.00,Weather View 32 v70,2013-06-13 22:28:00,
2013-06-13 18:33:00,85.9,75.8,29.92,West,261,6.0,9.0,72,0.00,,,0.00,Weather View 32 v70,2013-06-13 22:33:00,
2013-06-13 18:38:00,85.5,75.8,29.92,West,271,5.0,9.0,73,0.00,,,0.00,Weather View 32 v70,2013-06-13 22:38:00,
2013-06-13 18:43:00,85.3,76.0,29.92,WSW,253,5.0,9.0,74,0.00,,,0.00,Weather View 32 v70,2013-06-13 22:43:00,
2013-06-13 18:48:00,85.1,76.2,29.92,WSW,247,3.0,9.0,75,0.00,,,0.00,Weather View 32 v70,2013-06-13 22:48:00,
2013-06-13 18:53:00,84.7,76.3,29.91,WSW,256,2.0,12.0,76,0.00,,,0.00,Weather View 32 v70,2013-06-13 22:53:00,
2013-06-13 18:58:00,84.5,76.1,29.91,West,269,2.0,12.0,76,0.00,,,0.00,Weather View 32 v70,2013-06-13 22:58:00,
2013-06-13 19:03:00,84.7,76.3,29.91,WSW,248,1.0,12.0,76,0.00,,,0.00,Weather View 32 v70,2013-06-13 23:03:00,
2013-06-13 19:08:00,84.7,76.3,29.91,West,267,0.0,12.0,76,0.00,,,0.00,Weather View 32 v70,2013-06-13 23:08:00,
2013-06-13 19:13:00,84.3,75.9,29.91,WSW,253,3.0,12.0,76,0.00,,,0.00,Weather View 32 v70,2013-06-13 23:13:00,
2013-06-13 19:18:00,84.1,76.1,29.91,SW,227,5.0,12.0,77,0.00,,,0.00,Weather View 32 v70,2013-06-13 23:18:00,
2013-06-13 19:23:00,83.9,76.3,29.90,SW,232,8.0,12.0,78,0.00,,,0.00,Weather View 32 v70,2013-06-13 23:23:00,
2013-06-13 19:28:00,83.3,75.7,29.90,WSW,256,5.0,12.0,78,0.00,,,0.00,Weather View 32 v70,2013-06-13 23:28:00,
2013-06-13 19:33:00,83.1,75.9,29.90,West,262,5.0,12.0,79,0.00,,,0.00,Weather View 32 v70,2013-06-13 23:33:00,
2013-06-13 19:38:00,83.2,75.6,29.91,WSW,254,6.0,12.0,78,0.00,,,0.00,Weather View 32 v70,2013-06-13 23:38:00,
2013-06-13 19:43:00,83.2,76.0,29.91,SW,232,5.0,12.0,79,0.00,,,0.00,Weather View 32 v70,2013-06-13 23:43:00,
2013-06-13 19:48:00,83.0,75.8,29.91,WSW,246,4.0,12.0,79,0.00,,,0.00,Weather View 32 v70,2013-06-13 23:48:00,
2013-06-13 19:53:00,83.0,75.4,29.91,West,266,3.0,11.0,78,0.00,,,0.00,Weather View 32 v70,2013-06-13 23:53:00,
2013-06-13 19:58:00,82.8,75.6,29.91,West,279,4.0,11.0,79,0.00,,,0.00,Weather View 32 v70,2013-06-13 23:58:00,
2013-06-13 20:03:00,82.6,75.4,29.91,West,265,0.0,11.0,79,0.00,,,0.00,Weather View 32 v70,2013-06-14 00:03:00,
2013-06-13 20:08:00,82.4,75.2,29.91,West,263,7.0,11.0,79,0.00,,,0.00,Weather View 32 v70,2013-06-14 00:08:00,
2013-06-13 20:13:00,82.2,75.4,29.91,WSW,250,1.0,11.0,80,0.00,,,0.00,Weather View 32 v70,2013-06-14 00:13:00,
2013-06-13 20:18:00,82.0,75.2,29.91,West,281,4.0,11.0,80,0.00,,,0.00,Weather View 32 v70,2013-06-14 00:18:00,
2013-06-13 20:23:00,81.8,75.0,29.91,WSW,246,4.0,11.0,80,0.00,,,0.00,Weather View 32 v70,2013-06-14 00:23:00,
2013-06-13 20:28:00,81.6,74.8,29.91,WSW,254,3.0,10.0,80,0.00,,,0.00,Weather View 32 v70,2013-06-14 00:28:00,
2013-06-13 20:33:00,81.6,75.2,29.91,WSW,250,3.0,10.0,81,0.00,,,0.00,Weather View 32 v70,2013-06-14 00:33:00,
2013-06-13 20:39:00,81.5,74.7,29.91,West,261,5.0,10.0,80,0.00,,,0.00,Weather View 32 v70,2013-06-14 00:39:00,
2013-06-13 20:44:00,81.4,75.0,29.91,West,261,0.0,9.0,81,0.00,,,0.00,Weather View 32 v70,2013-06-14 00:44:00,
2013-06-13 20:49:00,81.4,75.0,29.91,North,0,4.0,9.0,81,0.00,,,0.00,Weather View 32 v70,2013-06-14 00:49:00,
2013-06-13 20:54:00,81.3,74.9,29.91,WSW,252,0.0,9.0,81,0.00,,,0.00,Weather View 32 v70,2013-06-14 00:54:00,
2013-06-13 20:59:00,81.2,74.8,29.91,WSW,257,3.0,9.0,81,0.00,,,0.00,Weather View 32 v70,2013-06-14 00:59:00,
2013-06-13 21:04:00,81.2,74.8,29.91,WSW,257,0.0,9.0,81,0.00,,,0.00,Weather View 32 v70,2013-06-14 01:04:00,
2013-06-13 21:09:00,81.1,75.1,29.92,West,259,0.0,9.0,82,0.00,,,0.00,Weather View 32 v70,2013-06-14 01:09:00,
2013-06-13 21:14:00,81.0,75.0,29.92,WSW,258,0.0,9.0,82,0.00,,,0.00,Weather View 32 v70,2013-06-14 01:14:00,
2013-06-13 21:19:00,80.9,74.9,29.92,WSW,258,0.0,9.0,82,0.00,,,0.00,Weather View 32 v70,2013-06-14 01:19:00,
2013-06-13 21:24:00,80.9,75.2,29.92,West,260,0.0,7.0,83,0.00,,,0.00,Weather View 32 v70,2013-06-14 01:24:00,
2013-06-13 21:29:00,80.8,74.8,29.92,West,259,3.0,7.0,82,0.00,,,0.00,Weather View 32 v70,2013-06-14 01:29:00,
2013-06-13 21:34:00,80.8,75.1,29.92,WSW,258,1.0,7.0,83,0.00,,,0.00,Weather View 32 v70,2013-06-14 01:34:00,
2013-06-13 21:39:00,80.7,75.0,29.92,WSW,258,0.0,6.0,83,0.00,,,0.00,Weather View 32 v70,2013-06-14 01:39:00,
2013-06-13 21:44:00,80.7,75.0,29.92,WSW,257,0.0,6.0,83,0.00,,,0.00,Weather View 32 v70,2013-06-14 01:44:00,
2013-06-13 21:49:00,80.6,74.9,29.91,West,259,3.0,6.0,83,0.00,,,0.00,Weather View 32 v70,2013-06-14 01:49:00,
2013-06-13 21:54:00,80.6,75.3,29.92,West,261,0.0,6.0,84,0.00,,,0.00,Weather View 32 v70,2013-06-14 01:54:00,
2013-06-13 21:59:00,80.5,75.2,29.92,West,261,2.0,6.0,84,0.00,,,0.00,Weather View 32 v70,2013-06-14 01:59:00,
2013-06-13 22:04:00,80.5,75.2,29.92,West,259,0.0,6.0,84,0.00,,,0.00,Weather View 32 v70,2013-06-14 02:04:00,
2013-06-13 22:09:00,80.4,75.1,29.92,West,259,1.0,6.0,84,0.00,,,0.00,Weather View 32 v70,2013-06-14 02:09:00,
2013-06-13 22:14:00,80.4,75.1,29.92,West,259,0.0,6.0,84,0.00,,,0.00,Weather View 32 v70,2013-06-14 02:14:00,
2013-06-13 22:19:00,80.3,75.0,29.92,West,259,0.0,6.0,84,0.00,,,0.00,Weather View 32 v70,2013-06-14 02:19:00,
2013-06-13 22:24:00,80.3,75.0,29.92,West,259,0.0,6.0,84,0.00,,,0.00,Weather View 32 v70,2013-06-14 02:24:00,
2013-06-13 22:29:00,80.2,74.9,29.92,WSW,258,0.0,6.0,84,0.00,,,0.00,Weather View 32 v70,2013-06-14 02:29:00,
2013-06-13 22:34:00,80.2,74.9,29.92,WSW,257,0.0,6.0,84,0.00,,,0.00,Weather View 32 v70,2013-06-14 02:34:00,
2013-06-13 22:39:00,80.1,75.2,29.93,WSW,256,0.0,6.0,85,0.00,,,0.00,Weather View 32 v70,2013-06-14 02:39:00,
2013-06-13 22:44:00,80.0,75.1,29.93,WSW,256,0.0,6.0,85,0.00,,,0.00,Weather View 32 v70,2013-06-14 02:44:00,
2013-06-13 22:49:00,80.1,75.2,29.93,WSW,256,0.0,6.0,85,0.00,,,0.00,Weather View 32 v70,2013-06-14 02:49:00,
2013-06-13 22:54:00,80.0,75.1,29.93,WSW,258,0.0,6.0,85,0.00,,,0.00,Weather View 32 v70,2013-06-14 02:54:00,
2013-06-13 22:59:00,80.0,75.1,29.93,West,259,2.0,6.0,85,0.00,,,0.00,Weather View 32 v70,2013-06-14 02:59:00,
2013-06-13 23:04:00,80.0,75.1,29.93,West,259,0.0,6.0,85,0.00,,,0.00,Weather View 32 v70,2013-06-14 03:04:00,
2013-06-13 23:09:00,80.0,75.1,29.93,West,259,0.0,6.0,85,0.00,,,0.00,Weather View 32 v70,2013-06-14 03:09:00,
2013-06-13 23:14:00,79.9,75.0,29.94,West,259,0.0,6.0,85,0.00,,,0.00,Weather View 32 v70,2013-06-14 03:14:00,
2013-06-13 23:19:00,79.8,74.9,29.94,West,259,0.0,6.0,85,0.00,,,0.00,Weather View 32 v70,2013-06-14 03:19:00,
2013-06-13 23:24:00,79.8,74.9,29.95,West,259,0.0,6.0,85,0.00,,,0.00,Weather View 32 v70,2013-06-14 03:24:00,
2013-06-13 23:30:00,79.7,74.8,29.94,West,259,0.0,6.0,85,0.00,,,0.00,Weather View 32 v70,2013-06-14 03:30:00,
2013-06-13 23:35:00,79.7,75.1,29.94,West,259,0.0,6.0,86,0.00,,,0.00,Weather View 32 v70,2013-06-14 03:35:00,
2013-06-13 23:40:00,79.6,75.0,29.94,West,259,0.0,5.0,86,0.00,,,0.00,Weather View 32 v70,2013-06-14 03:40:00,
2013-06-13 23:45:00,79.5,74.9,29.94,West,259,0.0,5.0,86,0.00,,,0.00,Weather View 32 v70,2013-06-14 03:45:00,
2013-06-13 23:50:00,79.4,74.8,29.94,West,259,0.0,4.0,86,0.00,,,0.00,Weather View 32 v70,2013-06-14 03:50:00,
2013-06-13 23:55:00,79.4,75.2,29.94,West,259,0.0,4.0,87,0.00,,,0.00,Weather View 32 v70,2013-06-14 03:55:00,